CORIOLIS

导读

CORIOLIS(科里奥利号)是美国国防部于2003年1月6日在范登堡空军基地,由泰坦23G运载火箭发射的试验卫星,运行于830公里高的太阳同步轨道。卫星总重817千克,携带WindSat海洋风监测仪和SMEI太阳物质抛射成像仪,设计寿命3年,可同时监测海洋风场、观测太阳活动,为气象预报和空间天气预警提供数据支撑。

基本信息
目录编号:
27640
目录名称:
CORIOLIS
国际标识:
2003-001A
轨道中心:
EARTH
卫星名称:
CORIOLIS
卫星全名:
--
卫星状态:
在轨 (已飞行8561 天)
发射日期:
2003-01-06 UTC
国别 :
美国 (US)
星等 :
--
轨道信息
数据来源 国际轨道数据 AOE轨道数据
星历时间 2026-06-15T06:36:55+0800
7小时前
查看轨道信息
2026-06-15T08:00:00+0800
5小时前
查看轨道信息
半长轴 7203.679km 7203.685km
偏心率 0.0013253 0.0013325
轨道倾角 98.713° 98.713°
近地点辐角 215.604° 215.938°
升交点赤经 172.861° 172.919°
平近点角 144.426° 78.880°
近地点 815.994km 815.949km
远地点 835.09km 835.147km
周期 101.412分钟 101.413分钟
每日圈数 14.199442 14.199425
详细信息
使用方式:
暂无
2D轨道图
3D轨道图
轨道高度分析图
轨道倾角分析图
轨道综合分析图
查看轨道综合分析图